EW3966 Weather Reports


Display with metric or nautical units.
time (UTC)temp
F
wind
direction
speed
MPH
gust
MPH
rain 1hr
in
rain 24hr
in
rain mn
in
humidity
%
barometer
mb
20260508113526 45 101 2.0 8.0 0.00 0.00 0.00 96 1003.3
20260508112524 45 66 4.0 8.0 0.00 0.00 0.00 96 1003.3
20260508112024 46 112 3.0 8.0 0.00 0.00 0.00 96 1003.3
20260508111524 46 147 3.0 8.0 0.00 0.00 0.00 96 1003.3
20260508111022 46 125 3.0 9.0 0.00 0.00 0.00 96 1003.4
20260508110523 45 199 4.0 8.0 0.00 0.00 0.00 96 1003.4
20260508110023 45 101 1.0 7.0 0.00 0.00 0.00 96 1003.5
20260508105523 45 128 2.0 7.0 0.00 0.00 0.00 96 1003.5
20260508105023 45 162 1.0 8.0 0.00 0.00 0.00 96 1003.6
20260508104522 46 141 1.0 8.0 0.00 0.00 0.00 96 1003.5
20260508104022 46 139 2.0 6.0 0.00 0.00 0.00 96 1003.5
20260508103522 47 125 2.0 6.0 0.00 0.00 0.00 96 1003.6
20260508102522 48 132 2.0 9.0 0.00 0.00 0.00 96 1003.6
20260508102022 48 157 1.0 9.0 0.00 0.00 0.00 96 1003.7
20260508101522 48 274 1.0 4.0 0.00 0.00 0.00 96 1003.7
20260508101021 48 178 1.0 4.0 0.00 0.00 0.00 96 1003.7
20260508100522 48 320 0.0 5.0 0.00 0.00 0.00 97 1003.7
20260508100025 47 259 1.0 6.0 0.00 0.00 0.00 96 1003.8
20260508095522 47 143 1.0 6.0 0.00 0.00 0.00 96 1003.8
20260508095025 46 101 1.0 5.0 0.00 0.00 0.00 96 1003.8
20260508094522 46 81 0.0 4.0 0.00 0.00 0.00 96 1003.7
20260508094021 46 53 1.0 5.0 0.00 0.00 0.00 96 1003.7
20260508093521 46 93 1.0 5.0 0.00 0.00 0.00 96 1003.8
20260508092522 46 128 2.0 6.0 0.00 0.00 0.00 96 1003.7
20260508092021 46 65 1.0 5.0 0.00 0.00 0.00 96 1003.7
20260508091520 47 59 1.0 6.0 0.00 0.00 0.00 96 1003.7
20260508091021 47 121 1.0 5.0 0.00 0.00 0.00 96 1003.8
20260508090521 48 130 1.0 6.0 0.00 0.00 0.00 96 1003.8
20260508090024 48 113 1.0 6.0 0.00 0.00 0.00 96 1003.8
20260508085519 48 89 1.0 6.0 0.00 0.00 0.00 96 1003.7
20260508085019 48 228 3.0 6.0 0.00 0.00 0.00 96 1003.8
20260508084519 48 216 2.0 7.0 0.00 0.00 0.00 96 1003.9
20260508084018 48 124 3.0 9.0 0.00 0.00 0.00 96 1003.8
20260508083519 49 189 2.0 10.0 0.00 0.00 0.00 96 1003.8
20260508082518 48 58 2.0 8.0 0.00 0.00 0.00 96 1003.9
20260508082021 48 112 3.0 7.0 0.00 0.00 0.00 96 1003.8
20260508081548 48 97 2.0 7.0 0.00 0.00 0.00 96 1003.9
20260508081017 48 158 2.0 7.0 0.00 0.00 0.00 96 1003.9
20260508080517 49 170 3.0 6.0 0.00 0.00 0.00 96 1003.8
20260508080017 49 85 1.0 6.0 0.00 0.00 0.00 96 1003.9
20260508075517 49 184 1.0 7.0 0.00 0.00 0.00 96 1003.9
20260508075015 48 131 3.0 9.0 0.00 0.00 0.00 97 1003.9
20260508074514 48 143 3.0 11.0 0.00 0.00 0.00 96 1004.0
20260508074014 48 115 3.0 11.0 0.00 0.00 0.00 96 1004.0
20260508073513 48 169 1.0 10.0 0.00 0.00 0.00 96 1004.1
20260508072514 48 107 2.0 9.0 0.00 0.00 0.00 96 1004.2
20260508072014 48 215 3.0 9.0 0.00 0.00 0.00 96 1004.2
20260508071533 47 259 2.0 9.0 0.00 0.00 0.00 96 1004.3
20260508071016 47 167 3.0 10.0 0.00 0.00 0.00 96 1004.3
20260508070517 47 168 3.0 10.0 0.00 0.00 0.00 96 1004.4
20260508070013 48 142 3.0 10.0 0.00 0.00 0.00 96 1004.3
20260508065512 48 211 2.0 9.0 0.00 0.00 0.00 96 1004.4
20260508065013 48 259 1.0 10.0 0.00 0.00 0.00 96 1004.4
20260508064512 48 115 3.0 10.0 0.00 0.00 0.00 96 1004.4
20260508064013 48 188 3.0 7.0 0.00 0.00 0.00 96 1004.4
20260508063514 48 277 1.0 7.0 0.00 0.00 0.00 96 1004.3
20260508062516 48 160 2.0 7.0 0.00 0.00 0.00 96 1004.4
20260508062010 48 247 2.0 11.0 0.00 0.00 0.00 96 1004.6
20260508061510 48 326 3.0 12.0 0.00 0.00 0.00 96 1004.5
20260508061008 48 189 6.0 12.0 0.00 0.00 0.00 97 1004.7
20260508060507 48 95 5.0 12.0 0.00 0.00 0.00 96 1004.5
20260508060007 47 121 3.0 16.0 0.00 0.00 0.00 97 1004.6
20260508055505 47 59 5.0 16.0 0.00 0.00 0.00 96 1004.6
20260508055005 46 160 3.0 13.0 0.00 0.00 0.00 96 1004.5
20260508054507 46 151 3.0 15.0 0.00 0.00 0.00 96 1004.9
20260508054002 44 299 1.0 9.0 0.00 0.00 0.00 96 1004.9
20260508053502 44 111 4.0 12.0 0.00 0.00 0.00 96 1005.0
20260508052601 43 116 4.0 11.0 0.00 0.00 0.00 96 1005.1
20260508052503 43 112 5.0 11.0 0.00 0.00 0.00 96 1005.1
20260508052100 43 146 5.0 12.0 0.00 0.00 0.00 96 1005.3
20260508051600 44 142 5.0 12.0 0.00 0.00 0.00 96 1005.5
20260508051100 44 148 4.0 12.0 0.00 0.00 0.00 96 1005.4
20260508050559 44 168 3.0 11.0 0.00 0.00 0.00 96 1005.6
20260508050058 44 158 4.0 9.0 0.00 0.00 0.00 96 1005.8
20260508045556 44 139 4.0 11.0 0.00 0.00 0.00 96 1005.8
20260508045056 43 91 3.0 11.0 0.00 0.00 0.00 96 1005.9
20260508044555 43 117 3.0 18.0 0.00 0.00 0.00 96 1006.1
20260508044058 43 174 5.0 18.0 0.00 0.00 0.00 96 1006.2
20260508043555 43 195 5.0 13.0 0.00 0.00 0.00 96 1006.3
20260508042554 43 112 6.0 15.0 0.00 0.00 0.00 96 1006.5
20260508042053 43 162 3.0 10.0 0.00 0.00 0.00 96 1006.6
20260508041553 43 61 5.0 11.0 0.00 0.00 0.00 96 1006.8
20260508041052 43 122 5.0 11.0 0.00 0.00 0.00 96 1006.9
20260508040552 43 157 4.0 11.0 0.00 0.00 0.00 96 1007.0
20260508040055 43 202 2.0 16.0 0.00 0.00 0.00 96 1007.3
20260508035552 43 196 7.0 16.0 0.00 0.00 0.00 96 1007.3
20260508035051 43 150 7.0 14.0 0.00 0.00 0.00 96 1007.2
20260508034552 43 227 8.0 14.0 0.00 0.00 0.00 96 1007.2
20260508034050 43 248 5.0 14.0 0.00 0.00 0.00 96 1007.2
20260508033549 43 255 4.0 15.0 0.00 0.00 0.00 96 1007.6
20260508032550 43 217 5.0 11.0 0.00 0.00 0.00 96 1007.6
20260508032049 43 222 5.0 11.0 0.00 0.00 0.00 96 1007.7
20260508031547 43 182 4.0 13.0 0.00 0.00 0.00 96 1008.0
20260508031046 43 187 4.0 13.0 0.00 0.00 0.00 96 1008.1
20260508030545 43 264 2.0 11.0 0.00 0.00 0.00 96 1008.1
20260508030045 43 271 2.0 19.0 0.00 0.00 0.00 96 1008.2
20260508025546 43 249 6.0 19.0 0.00 0.00 0.00 96 1008.3
20260508025043 43 185 6.0 15.0 0.00 0.00 0.00 96 1008.4
20260508024548 43 214 7.0 15.0 0.00 0.00 0.00 96 1008.6
20260508024041 43 186 7.0 15.0 0.00 0.00 0.00 96 1008.7
20260508023541 44 228 5.0 12.0 0.00 0.00 0.00 96 1008.7
20260508022539 44 181 2.0 11.0 0.00 0.00 0.00 96 1009.1
20260508022038 44 158 3.0 10.0 0.00 0.00 0.00 96 1009.3
20260508021537 44 250 2.0 11.0 0.00 0.00 0.00 96 1009.4
20260508021037 44 255 3.0 11.0 0.00 0.00 0.00 96 1009.7
20260508020537 44 253 4.0 8.0 0.00 0.00 0.00 96 1009.7
20260508020036 44 224 4.0 9.0 0.00 0.00 0.00 96 1009.6
20260508015537 44 228 4.0 9.0 0.00 0.00 0.00 96 1009.6
20260508015036 44 236 1.0 15.0 0.00 0.00 0.00 96 1009.5
20260508014541 44 121 2.0 15.0 0.00 0.00 0.00 96 1009.8
20260508014036 43 230 2.0 14.0 0.00 0.00 0.00 95 1010.0
20260508013535 43 164 3.0 14.0 0.00 0.00 0.00 95 1010.0
20260508012534 44 103 4.0 11.0 0.00 0.00 0.00 95 1010.1
20260508012032 44 130 5.0 11.0 0.00 0.00 0.00 95 1010.1
20260508011530 44 137 5.0 16.0 0.00 0.00 0.00 95 1010.3
20260508011029 44 59 5.0 16.0 0.00 0.00 0.00 95 1010.6
20260508010530 44 171 5.0 15.0 0.00 0.00 0.00 95 1010.6
20260508010034 44 118 5.0 15.0 0.00 0.00 0.00 95 1010.6
20260508005528 44 82 6.0 14.0 0.00 0.00 0.00 95 1010.6
20260508005027 44 122 6.0 14.0 0.00 0.00 0.00 95 1010.7
20260508004627 44 162 4.0 13.0 0.00 0.00 0.00 95 1010.9
20260508004028 44 193 6.0 13.0 0.00 0.00 0.00 95 1010.9
20260508003524 45 155 6.0 16.0 0.00 0.00 0.00 95 1011.1
20260508002525 45 152 4.0 21.0 0.00 0.00 0.00 95 1011.3
20260508002023 45 155 7.0 21.0 0.00 0.00 0.00 95 1011.2
20260508001522 45 141 6.0 13.0 0.00 0.00 0.00 95 1011.3
20260508001023 45 133 4.0 18.0 0.00 0.00 0.00 95 1011.2
20260508000523 45 44 4.0 12.0 0.00 0.00 0.00 95 1011.4
20260508000021 45 149 3.0 11.0 0.00 0.00 0.00 95 1011.5
20260507235521 45 132 4.0 14.0 0.00 0.00 0.00 95 1011.7
20260507235021 45 177 5.0 15.0 0.00 0.00 0.00 95 1011.8
20260507234621 45 125 6.0 15.0 0.00 0.00 0.00 95 1011.6
20260507234021 45 76 6.0 15.0 0.00 0.00 0.00 95 1011.8
20260507233519 45 147 3.0 10.0 0.00 0.00 0.00 95 1011.8
20260507232519 46 207 4.0 15.0 0.00 0.00 0.00 95 1012.1
20260507232020 46 149 3.0 10.0 0.00 0.00 0.00 95 1012.2
20260507231527 45 4 1.0 10.0 0.00 0.00 0.00 95 1012.1
20260507231020 45 70 4.0 11.0 0.00 0.00 0.00 95 1012.0
20260507230519 45 185 6.0 14.0 0.00 0.00 0.00 95 1012.0
20260507230018 46 114 6.0 14.0 0.00 0.00 0.00 95 1012.0
20260507225518 46 141 5.0 14.0 0.00 0.00 0.00 95 1012.1
20260507225018 46 170 4.0 13.0 0.00 0.00 0.00 95 1012.1
20260507224518 46 101 6.0 15.0 0.00 0.00 0.00 95 1012.0
20260507224016 46 144 6.0 15.0 0.00 0.00 0.00 95 1012.1
20260507223517 46 88 5.0 16.0 0.00 0.00 0.00 95 1012.2
20260507222516 45 192 5.0 11.0 0.00 0.00 0.00 95 1012.3
20260507222015 44 39 5.0 11.0 0.00 0.00 0.00 95 1012.2
20260507221515 44 83 3.0 10.0 0.00 0.00 0.00 95 1012.1
20260507221016 44 64 4.0 14.0 0.00 0.00 0.00 94 1012.2
20260507220514 44 73 6.0 14.0 0.00 0.00 0.00 94 1012.2
20260507220018 44 94 6.0 13.0 0.00 0.00 0.00 94 1012.4
20260507215512 45 155 4.0 11.0 0.00 0.00 0.00 95 1012.6
20260507215011 45 145 4.0 10.0 0.00 0.00 0.00 94 1012.8
20260507214510 44 162 4.0 10.0 0.00 0.00 0.00 94 1012.8
20260507214010 44 82 3.0 11.0 0.00 0.00 0.00 94 1012.9
20260507213509 44 70 2.0 10.0 0.00 0.00 0.00 94 1013.0
20260507212508 44 135 4.0 12.0 0.00 0.00 0.00 94 1013.1
20260507212007 44 192 6.0 12.0 0.00 0.00 0.00 94 1013.5
20260507211508 44 101 4.0 10.0 0.00 0.00 0.00 94 1013.4
20260507211008 44 190 4.0 10.0 0.00 0.00 0.00 94 1013.7
20260507210504 44 167 3.0 11.0 0.00 0.00 0.00 94 1013.5
20260507210004 44 120 3.0 10.0 0.00 0.00 0.00 93 1013.5
20260507205503 44 96 4.0 10.0 0.00 0.00 0.00 93 1013.7
20260507205001 44 183 3.0 9.0 0.00 0.00 0.00 93 1013.9
20260507204500 44 133 5.0 18.0 0.00 0.00 0.00 93 1014.0
20260507204104 44 140 5.0 18.0 0.00 0.00 0.00 92 1014.2
20260507203559 44 165 4.0 9.0 0.00 0.00 0.00 92 1014.0
20260507202557 45 170 3.0 14.0 0.00 0.00 0.00 92 1014.2
20260507202057 45 137 3.0 10.0 0.00 0.00 0.00 91 1014.3
20260507201600 45 151 3.0 13.0 0.00 0.00 0.00 91 1014.3
20260507201055 45 234 4.0 9.0 0.00 0.00 0.00 91 1014.5
20260507200554 46 150 4.0 8.0 0.00 0.00 0.00 91 1014.4
20260507200107 46 40 3.0 11.0 0.00 0.00 0.00 91 1014.4
20260507195551 46 133 5.0 11.0 0.00 0.00 0.00 90 1014.7
20260507195051 46 168 6.0 14.0 0.00 0.00 0.00 90 1014.7
20260507194550 47 169 4.0 12.0 0.00 0.00 0.00 89 1014.6
20260507194048 47 126 4.0 10.0 0.00 0.00 0.00 88 1014.7
20260507193547 48 100 5.0 10.0 0.00 0.00 0.00 87 1014.8
20260507192546 51 70 6.0 13.0 0.00 0.00 0.00 86 1015.1
20260507192045 52 121 5.0 15.0 0.00 0.00 0.00 87 1015.1
20260507191544 53 81 6.0 15.0 0.00 0.00 0.00 87 1015.4
20260507191043 53 81 5.0 14.0 0.00 0.00 0.00 87 1015.6
20260507190546 54 151 3.0 12.0 0.00 0.00 0.00 86 1015.8
20260507190047 55 51 4.0 22.0 0.00 0.00 0.00 86 1015.7
20260507185546 55 89 6.0 14.0 0.00 0.00 0.00 86 1015.7
20260507185041 55 128 4.0 14.0 0.00 0.00 0.00 85 1015.9
20260507184547 55 117 4.0 10.0 0.00 0.00 0.00 85 1016.1
20260507184041 55 189 2.0 18.0 0.00 0.00 0.00 85 1016.2
20260507183540 55 126 3.0 7.0 0.00 0.00 0.00 85 1016.3
20260507182540 55 196 4.0 12.0 0.00 0.00 0.00 85 1016.4
20260507182042 55 148 5.0 13.0 0.00 0.00 0.00 84 1016.4
20260507181539 55 212 6.0 15.0 0.00 0.00 0.00 85 1016.5
20260507181039 55 141 3.0 12.0 0.00 0.00 0.00 85 1016.6
20260507180544 55 103 5.0 12.0 0.00 0.00 0.00 86 1016.6
20260507180045 54 149 5.0 12.0 0.00 0.00 0.00 86 1016.6
20260507175542 54 97 7.0 16.0 0.00 0.00 0.00 85 1016.7
20260507175039 55 233 6.0 19.0 0.00 0.00 0.00 85 1016.6
20260507174539 55 119 5.0 19.0 0.00 0.00 0.00 85 1016.6
20260507174037 56 73 7.0 24.0 0.00 0.00 0.00 84 1016.8
20260507173537 56 191 7.0 15.0 0.00 0.00 0.00 83 1016.9
20260507172538 57 151 8.0 16.0 0.00 0.00 0.00 83 1017.0
20260507172036 57 116 5.0 16.0 0.00 0.00 0.00 81 1017.0
20260507171535 57 231 6.0 13.0 0.00 0.00 0.00 83 1017.1
20260507171034 57 133 4.0 10.0 0.00 0.00 0.00 84 1017.3
20260507170535 56 177 5.0 10.0 0.00 0.00 0.00 82 1017.4
20260507170036 57 75 4.0 9.0 0.00 0.00 0.00 80 1017.6
20260507165532 57 65 4.0 13.0 0.00 0.00 0.00 82 1017.5
20260507165034 56 122 4.0 13.0 0.00 0.00 0.00 82 1017.6
20260507164540 55 148 4.0 13.0 0.00 0.00 0.00 82 1017.6
20260507164031 55 181 3.0 13.0 0.00 0.00 0.00 85 1017.7
20260507163531 53 199 4.0 10.0 0.00 0.00 0.00 87 1017.8
20260507162531 50 135 3.0 10.0 0.00 0.00 0.00 83 1018.1
20260507162029 50 169 3.0 10.0 0.00 0.00 0.00 82 1018.1
20260507161528 51 122 4.0 10.0 0.00 0.00 0.00 81 1018.1
20260507161028 52 139 3.0 12.0 0.00 0.00 0.00 79 1018.0
20260507160527 54 98 5.0 12.0 0.00 0.00 0.00 76 1018.1
20260507160027 55 91 2.0 10.0 0.00 0.00 0.00 77 1018.0
20260507155526 56 137 4.0 10.0 0.00 0.00 0.00 76 1018.2
20260507155026 56 65 4.0 12.0 0.00 0.00 0.00 77 1018.2
20260507154525 57 161 6.0 11.0 0.00 0.00 0.00 78 1018.4
20260507154025 55 64 3.0 14.0 0.00 0.00 0.00 79 1018.5
20260507153523 55 149 5.0 9.0 0.00 0.00 0.00 79 1018.6
20260507152522 54 147 5.0 9.0 0.00 0.00 0.00 76 1018.8
20260507152022 55 191 4.0 10.0 0.00 0.00 0.00 77 1018.9
20260507151522 55 108 3.0 10.0 0.00 0.00 0.00 75 1019.0
20260507151020 56 139 2.0 10.0 0.00 0.00 0.00 74 1019.1
20260507150520 57 145 5.0 10.0 0.00 0.00 0.00 74 1019.1
20260507150025 58 103 3.0 14.0 0.00 0.00 0.00 73 1019.3
20260507145521 59 117 5.0 14.0 0.00 0.00 0.00 73 1019.2
20260507145018 60 186 5.0 12.0 0.00 0.00 0.00 74 1019.2
20260507144524 60 155 5.0 12.0 0.00 0.00 0.00 75 1019.3
20260507144018 60 151 5.0 14.0 0.00 0.00 0.00 75 1019.4
20260507143518 60 94 7.0 14.0 0.00 0.00 0.00 76 1019.3
20260507142519 60 110 5.0 14.0 0.00 0.00 0.00 75 1019.3
20260507142018 60 179 5.0 14.0 0.00 0.00 0.00 75 1019.3
20260507141518 59 4 4.0 12.0 0.00 0.00 0.00 76 1019.4
20260507141018 59 148 4.0 11.0 0.00 0.00 0.00 77 1019.4
20260507140517 59 155 4.0 14.0 0.00 0.00 0.00 76 1019.4
20260507140018 59 130 2.0 14.0 0.00 0.00 0.00 76 1019.3
20260507135517 60 160 3.0 10.0 0.00 0.00 0.00 75 1019.3
20260507135017 60 174 5.0 10.0 0.00 0.00 0.00 78 1019.3
20260507134517 60 180 5.0 11.0 0.00 0.00 0.00 79 1019.4
20260507134016 59 173 7.0 11.0 0.00 0.00 0.00 80 1019.5
20260507133516 57 120 5.0 10.0 0.00 0.00 0.00 82 1019.4
20260507132517 58 117 4.0 11.0 0.00 0.00 0.00 78 1019.5
20260507132016 59 224 5.0 10.0 0.00 0.00 0.00 77 1019.6
20260507131517 59 176 4.0 8.0 0.00 0.00 0.00 78 1019.4
20260507131015 59 130 4.0 9.0 0.00 0.00 0.00 80 1019.4
20260507130517 59 198 4.0 10.0 0.00 0.00 0.00 81 1019.5
20260507130015 58 136 4.0 10.0 0.00 0.00 0.00 83 1019.5
20260507125515 57 104 5.0 10.0 0.00 0.00 0.00 82 1019.6
20260507125014 57 151 4.0 11.0 0.00 0.00 0.00 80 1019.6
20260507124520 58 107 4.0 11.0 0.00 0.00 0.00 77 1019.7
20260507124015 61 101 4.0 7.0 0.00 0.00 0.00 75 1019.7
20260507123515 61 137 2.0 8.0 0.00 0.00 0.00 78 1019.5
20260507122513 59 101 1.0 7.0 0.00 0.00 0.00 81 1019.4
20260507122011 58 83 2.0 7.0 0.00 0.00 0.00 80 1019.4
20260507121508 58 64 2.0 6.0 0.00 0.00 0.00 78 1019.4
20260507121008 58 106 1.0 5.0 0.00 0.00 0.00 80 1019.4
20260507120506 58 56 2.0 7.0 0.00 0.00 0.00 80 1019.5
20260507120007 57 58 2.0 7.0 0.00 0.00 0.00 81 1019.5
20260507115505 57 54 2.0 7.0 0.00 0.00 0.00 80 1019.6
20260507115008 57 70 1.0 5.0 0.00 0.00 0.00 80 1019.7
20260507114506 57 102 2.0 5.0 0.00 0.00 0.00 81 1019.6
20260507114004 56 145 1.0 5.0 0.00 0.00 0.00 81 1019.6